Simultaneous Nadir Overpasses (SNOs) Predictions

Prediction of SNOs between GOES-16 and METOP-B Satellite Orbit:

Table of predicted SNOs for the next 14.0 days since TLE Epoch: 1/24/2025
Index Date Time (GOES-16) GOES-16 Lat,Lon METOP-B Lat,Lon Distance(km) Time Diff (sec)
1 01/26/2025 02:15:57 0.02, -75.18 -0.03, -75.32 16.59 80
2 01/28/2025 14:14:21 -0.00, -75.23 -0.08, -74.97 30.57 80
3 01/31/2025 02:10:13 -0.00, -75.21 0.14, -74.64 65.43 80
4 02/01/2025 14:29:11 0.00, -75.26 0.87, -79.24 453.28 80
5 02/02/2025 14:11:16 0.00, -75.28 -0.22, -74.27 114.27 80
6 02/04/2025 02:30:22 -0.00, -75.26 -0.83, -78.91 416.57 80
7 02/05/2025 02:07:07 0.00, -75.27 0.27, -73.94 151.10 80
8 02/06/2025 14:26:05 0.00, -75.33 0.74, -78.55 367.06 80
9 02/07/2025 14:08:09 0.00, -75.34 -0.37, -73.58 200.91 80
